Sedalia, MO

12:06 PM CST on February 27, 2017 (GMT -0600)
Sedalia Memorial

Weather History for KDMO - January, 2013

Change the Weather History Date:

Saturday, January 12, 2013

  Actual Average Record
Temperature  
Mean Temperature 42 °F 31 °F  
Max Temperature 60 °F 40 °F 68 °F (1960)
Min Temperature 24 °F 23 °F -23 °F (1974)
Degree Days  
Heating Degree Days 23 34  
Month to date heating degree days 406  
Since 1 July heating degree days 2187  
Cooling Degree Days 0 0  
Month to date cooling degree days 0  
Year to date cooling degree days 0  
Moisture  
Dew Point 25 °F    
Average Humidity 80    
Maximum Humidity 93    
Minimum Humidity 43    
Precipitation  
Precipitation 0.17 in 0.04 in 1.35 in (2005)
Month to date precipitation 0.58  
Year to date precipitation 0.58  
Sea Level Pressure  
Sea Level Pressure 29.99 in    
Wind  
Wind Speed 14 mph (NNW)    
Max Wind Speed 21 mph    
Max Gust Speed 28 mph    
Visibility 7 miles    
Events Rain , Snow    
T = Trace of Precipitation, MM = Missing Value Source: NWS Daily Summary

Daily Weather History Graph

Daily Weather History Graph

Search for Another Location

Airport or City:

Trip Planner

Search our weather history database for the weather conditions in past years. The results will help you decide how hot, cold, wet, or windy it might be!

Date:

Astronomy

Jan. 12, 2013 Rise Set
Actual Time 7:30 AM CST 5:12 PM CST
Civil Twilight 7:00 AM CST 5:41 PM CST
Nautical Twilight 6:28 AM CST 6:14 PM CST
Astronomical Twilight 5:56 AM CST 6:46 PM CST
Moon 7:50 AM CST (1/12) 6:40 PM CST (1/12)
Length of Visible Light 10h 40m
Length of Day
9h 42m
New Moon, 1% of the Moon is Illuminated
Jan 12
New Moon
Jan 18
First Quarter
Jan 26
Full
Feb 3
Last Quarter
Feb 10
New

Hourly Weather History & Observations

Time (CST) Temp. Windchill Dew Point Humidity Pressure Visibility Wind Dir Wind Speed Gust Speed Precip Events Conditions
12:53 AM 59.0 °F - 44.1 °F 58% 29.76 in 10.0 mi SW 13.8 mph - N/A   Clear
1:53 AM 60.1 °F - 45.0 °F 57% 29.79 in 10.0 mi SW 10.4 mph - N/A   Mostly Cloudy
2:53 AM 55.9 °F - 43.0 °F 62% 29.83 in 10.0 mi West 11.5 mph - N/A   Overcast
3:53 AM 52.0 °F - 30.0 °F 43% 29.86 in 10.0 mi WNW 10.4 mph - N/A   Scattered Clouds
4:53 AM 44.1 °F 36.5 °F 34.0 °F 68% 29.91 in 10.0 mi NW 17.3 mph 27.6 mph N/A   Overcast
6:27 AM 37.4 °F 28.9 °F 30.2 °F 75% 29.95 in 10.0 mi NW 13.8 mph - N/A   Mostly Cloudy
6:36 AM 37.4 °F 29.3 °F 30.2 °F 75% 29.96 in 10.0 mi NW 12.7 mph - N/A   Mostly Cloudy
6:53 AM 37.0 °F 27.4 °F 30.0 °F 76% 29.99 in 10.0 mi NW 17.3 mph 23.0 mph N/A   Mostly Cloudy
7:53 AM 34.0 °F 25.0 °F 28.0 °F 79% 30.00 in 10.0 mi NNW 12.7 mph 23.0 mph N/A   Clear
8:53 AM 33.1 °F 22.6 °F 23.0 °F 66% 30.07 in 10.0 mi NNW 16.1 mph - N/A   Mostly Cloudy
9:53 AM 32.0 °F 21.2 °F 21.9 °F 66% 30.06 in 10.0 mi NNW 16.1 mph - N/A   Scattered Clouds
10:53 AM 33.1 °F 23.9 °F 21.0 °F 61% 30.06 in 10.0 mi North 12.7 mph - N/A   Partly Cloudy
11:53 AM 33.1 °F 23.4 °F 21.9 °F 64% 30.03 in 10.0 mi North 13.8 mph - N/A   Overcast
12:53 PM 32.0 °F 26.4 °F 21.0 °F 64% 30.02 in 10.0 mi NNE 5.8 mph - N/A   Overcast
1:53 PM 33.1 °F 25.5 °F 21.9 °F 64% 30.03 in 10.0 mi NNW 9.2 mph - N/A   Overcast
2:53 PM 30.9 °F 19.8 °F 21.9 °F 69% 29.99 in 10.0 mi North 16.1 mph - N/A   Overcast
3:53 PM 30.9 °F 21.7 °F 23.0 °F 72% 29.99 in 10.0 mi North 11.5 mph - N/A   Overcast
4:53 PM 30.0 °F 20.0 °F 23.0 °F 75% 30.04 in 6.0 mi NNW 12.7 mph - 0.03 in Rain Light Freezing Rain
5:13 PM 30.2 °F 20.2 °F 24.8 °F 80% 30.02 in 5.0 mi NNW 12.7 mph - 0.03 in Rain Light Freezing Rain
5:24 PM 30.2 °F 19.3 °F 24.8 °F 80% 30.00 in 6.0 mi NNW 15.0 mph - 0.04 in Rain Light Freezing Rain
5:37 PM 28.4 °F 16.6 °F 24.8 °F 86% 30.00 in 5.0 mi NNW 16.1 mph - 0.06 in Snow Light Snow
5:53 PM 28.0 °F 15.7 °F 25.0 °F 88% 30.00 in 5.0 mi North 17.3 mph - 0.07 in Snow Light Snow
6:06 PM 28.4 °F 15.4 °F 24.8 °F 86% 29.97 in 7.0 mi North 19.6 mph 27.6 mph 0.00 in Snow Light Snow
6:18 PM 28.4 °F 15.1 °F 24.8 °F 86% 29.97 in 7.0 mi North 20.7 mph - 0.01 in Rain Light Freezing Rain
6:26 PM 28.4 °F 15.8 °F 24.8 °F 86% 29.97 in 5.0 mi North 18.4 mph - 0.01 in Snow Light Snow
6:48 PM 26.6 °F 13.8 °F 24.8 °F 93% 29.97 in 2.5 mi North 17.3 mph - 0.03 in Snow Light Snow
6:53 PM 27.0 °F 15.6 °F 24.1 °F 89% 30.00 in 1.8 mi NNW 13.8 mph - 0.03 in Snow Light Snow
7:05 PM 26.6 °F 14.3 °F 24.8 °F 93% 29.99 in 1.5 mi NNW 16.1 mph 23.0 mph 0.00 in Snow Light Snow
7:25 PM 26.6 °F 15.7 °F 24.8 °F 93% 29.99 in 1.5 mi NNW 12.7 mph - 0.01 in Snow Light Snow
7:53 PM 26.1 °F 16.2 °F 21.9 °F 84% 30.05 in 1.8 mi NNW 10.4 mph - 0.02 in Snow Light Snow
8:15 PM 26.6 °F 15.2 °F 24.8 °F 93% 30.01 in 1.8 mi NNW 13.8 mph - 0.01 in Snow Light Snow
8:34 PM 26.6 °F 15.2 °F 24.8 °F 93% 30.01 in 2.5 mi NNW 13.8 mph - 0.01 in Snow Light Snow
8:46 PM 26.6 °F 15.7 °F 23.0 °F 86% 30.03 in 3.0 mi North 12.7 mph - 0.01 in Snow Light Snow
8:50 PM 26.6 °F 15.2 °F 23.0 °F 86% 30.02 in 2.5 mi North 13.8 mph - 0.01 in Snow Light Snow
8:53 PM 26.1 °F 14.5 °F 23.0 °F 88% 30.05 in 2.0 mi North 13.8 mph - 0.01 in Snow Light Snow
8:58 PM 26.6 °F 15.2 °F 24.8 °F 93% 30.01 in 1.2 mi North 13.8 mph - 0.00 in Snow Light Snow
9:06 PM 26.6 °F 15.7 °F 24.8 °F 93% 30.01 in 0.8 mi North 12.7 mph - 0.00 in Snow Light Snow
9:14 PM 26.6 °F 15.2 °F 24.8 °F 93% 30.01 in 1.0 mi North 13.8 mph - 0.01 in Snow Light Snow
9:22 PM 26.6 °F 15.2 °F 24.8 °F 93% 30.00 in 1.5 mi North 13.8 mph - 0.01 in Snow Light Snow
9:31 PM 26.6 °F 14.7 °F 23.0 °F 86% 30.01 in 3.0 mi NNW 15.0 mph - 0.01 in Snow Light Snow
9:44 PM 26.6 °F 14.3 °F 23.0 °F 86% 30.01 in 6.0 mi North 16.1 mph - 0.01 in Snow Light Snow
9:53 PM 26.1 °F 14.0 °F 23.0 °F 88% 30.03 in 7.0 mi North 15.0 mph - 0.01 in Snow Light Snow
10:14 PM 26.6 °F 14.7 °F 21.2 °F 80% 30.03 in 9.0 mi North 15.0 mph - 0.00 in   Overcast
10:53 PM 26.1 °F 15.6 °F 21.9 °F 84% 30.04 in 10.0 mi North 11.5 mph - 0.00 in   Overcast
11:02 PM 26.6 °F 16.8 °F 21.2 °F 80% 30.01 in 10.0 mi North 10.4 mph - N/A   Overcast
11:09 PM 24.8 °F 14.0 °F 21.2 °F 86% 30.02 in 10.0 mi NNW 11.5 mph - N/A   Overcast
11:21 PM 24.8 °F 14.6 °F 21.2 °F 86% 30.02 in 10.0 mi NNW 10.4 mph - N/A   Overcast
11:29 PM 24.8 °F 14.0 °F 21.2 °F 86% 30.02 in 10.0 mi NNW 11.5 mph - N/A   Overcast
11:50 PM 24.8 °F 13.4 °F 19.4 °F 80% 30.03 in 10.0 mi NNW 12.7 mph - N/A   Overcast
11:53 PM 25.0 °F 13.6 °F 19.0 °F 78% 30.05 in 10.0 mi NNW 12.7 mph - N/A   Overcast